Temp
52 52 53 53 53 52 52 52 52 52 51 51 51 52 53 51 50 48 47 56 52 51 54 56 59 53 55 55 48 54 52 52 52 44 45 44 43 48 48 50 48 45 40 36 38 34 31 56 53 42 50 55 57 57
52 52 52 52 52 52 52 51 51 51 51 50 51 51 52 52 50 49 44 56 56 49 51 55 56 59 58 58 53 55 51 51 53 47 46 46 42 47 45 38 54 43 45 38 43 43 56 59 55 57 56 55 57 55
52 52 52 52 52 52 52 51 51 51 51 50 51 51 52 52 50 49 46 48 51 45 49 54 58 63 64 62 63 49 54 56 51 56 49 46 40 49 38 41 47 52 56 48 46 53 52 53 57 59 57 57 57 58
52 52 52 52 52 52 52 51 51 51 50 50 50 51 51 52 50 49 44 47 49 48 40 52 65 59 65 63 60 58 55 56 54 53 47 45 41 53 44 47 46 50 52 41 48 53 49 52 51 54 54 50 51 58
51 51 52 52 52 52 52 51 51 51 50 50 50 51 50 51 49 48 47 47 51 44 38 47 59 64 66 63 59 59 55 50 47 45 45 42 50 47 51 50 47 43 38 35 34 43 41 43 51 49 47 49 54 56
51 51 51 52 52 52 52 51 51 50 50 50 51 51 50 50 48 44 39 50 53 50 39 41 60 58 61 61 59 54 53 49 44 45 47 52 55 47 41 42 43 49 52 45 37 42 42 46 49 54 55 56 55 52
50 51 51 52 52 51 51 51 51 50 50 50 50 50 50 49 46 40 40 45 52 49 39 39 51 59 62 61 57 56 52 45 43 43 47 50 48 43 37 35 47 51 44 41 47 47 45 49 50 56 54 50 46 44
50 51 51 51 51 51 51 51 51 50 50 50 50 50 49 48 45 41 46 48 50 44 45 36 45 53 61 54 50 54 47 45 42 43 47 43 42 40 35 44 48 41 39 44 46 45 48 54 56 49 50 43 41 40
50 50 51 51 51 51 51 51 50 50 50 49 49 48 45 43 39 43 50 51 51 43 36 39 38 42 60 58 61 51 52 37 42 38 44 42 38 38 42 39 38 38 38 39 43 50 53 53 50 52 43 40 39 39
50 50 50 50 50 51 51 50 50 50 49 48 46 41 37 42 49 49 43 38 38 40 40 41 53 46 61 61 56 50 51 43 36 43 42 38 39 46 44 39 38 39 42 46 44 48 50 51 51 44 39 39 39 38
50 50 50 51 51 51 50 50 50 49 48 43 39 38 43 47 45 42 39 36 36 35 39 47 50 48 60 50 50 54 45 48 42 38 39 38 37 43 44 39 41 43 44 45 52 52 57 56 50 42 40 40 39 39
50 50 50 50 50 51 50 49 49 46 43 44 42 44 43 40 38 36 37 41 37 39 46 46 50 55 56 59 48 49 41 46 35 48 38 37 41 45 40 40 42 43 43 49 54 54 58 55 54 44 42 40 39 39
50 50 50 50 50 50 49 48 48 46 46 45 41 38 39 39 31 30 32 39 41 49 49 52 49 54 54 54 47 45 41 40 53 42 38 40 45 45 42 41 41 41 45 50 54 54 55 57 57 47 44 42 41 39
50 50 50 50 50 49 49 47 47 46 44 39 36 31 34 33 37 41 43 50 55 55 54 55 50 52 52 47 47 40 48 51 39 35 33 44 43 43 43 42 40 39 42 47 52 52 53 59 57 50 47 44 42 40
49 49 50 49 49 49 48 47 48 45 42 37 37 33 35 46 49 52 56 55 57 59 57 55 55 53 47 41 47 45 39 36 39 34 39 43 45 43 41 40 39 39 42 46 50 52 50 56 56 53 50 47 44 42
49 49 48 49 48 48 47 46 43 43 40 38 38 37 45 44 46 51 55 54 59 59 60 58 49 42 39 41 36 37 37 32 35 39 44 46 44 44 43 41 40 41 42 44 47 48 51 52 56 54 53 52 48 43
49 46 48 48 47 47 45 41 41 38 38 37 39 47 47 49 49 54 58 57 62 56 50 51 40 36 42 35 33 37 33 36 44 44 45 47 45 45 46 44 44 45 44 43 44 47 50 52 57 55 52 50 52 46
47 47 48 47 45 44 41 42 40 37 35 40 41 46 50 53 55 58 60 59 58 57 56 49 52 41 34 33 36 38 42 49 50 48 45 46 46 49 49 46 47 47 45 42 42 43 48 50 52 52 54 53 53 48
47 46 46 46 45 42 38 38 40 36 40 46 48 51 51 53 59 62 60 59 60 61 57 53 46 43 42 47 41 43 51 55 52 49 50 50 49 48 49 49 50 49 50 44 40 39 41 48 51 50 51 53 52 51
46 45 46 46 47 41 37 38 45 41 40 45 49 49 51 53 58 59 58 57 56 55 50 46 48 50 51 48 52 55 56 57 56 50 52 55 56 54 53 53 53 52 52 48 43 39 42 43 48 50 51 48 53 49
44 43 44 45 43 43 42 42 40 44 48 46 51 51 50 55 54 53 53 58 52 52 48 51 51 51 54 55 56 58 54 55 48 48 50 53 57 57 56 56 56 55 51 44 39 39 39 39 41 46 48 52 54 51
41 44 41 42 40 40 41 47 44 50 48 49 49 51 49 49 51 54 57 51 51 52 55 52 52 52 53 52 53 55 53 52 48 50 43 51 55 54 54 55 54 53 52 46 40 39 40 40 41 43 46 48 53 53
44 43 41 41 37 38 38 50 42 45 41 42 48 45 48 50 53 56 48 50 52 56 55 53 53 55 55 54 53 53 54 50 53 56 56 57 57 56 56 55 54 52 51 50 49 44 43 38 41 41 42 47 51 54
44 41 38 39 40 36 45 41 46 45 46 43 43 43 47 50 52 48 46 50 53 55 55 53 54 53 53 52 53 54 55 56 57 55 56 56 55 55 56 56 55 52 52 53 52 52 51 46 43 43 40 40 44 52
36 36 37 32 42 39 38 38 38 41 39 43 42 42 44 50 42 44 45 50 52 53 54 54 56 56 53 54 55 53 54 60 57 53 54 56 55 56 55 56 55 52 54 51 50 50 50 52 48 45 42 39 37 43
31 38 35 40 39 38 38 34 37 40 43 42 44 48 48 44 41 39 47 52 52 53 54 54 54 54 56 56 54 53 53 60 57 53 53 55 53 52 51 50 49 49 53 52 50 49 49 50 50 47 45 42 36 37
30 33 43 49 45 45 41 44 46 43 41 42 44 44 43 37 38 42 51 55 54 58 59 60 59 57 56 56 55 55 56 57 55 53 55 55 54 53 52 48 46 46 52 52 51 50 48 48 49 49 48 46 42 37
40 42 35 38 39 43 38 40 41 41 43 49 47 41 40 40 40 42 50 55 57 59 59 60 60 59 56 55 55 55 55 54 52 53 55 54 54 53 52 53 52 35 49 51 50 51 49 49 48 48 48 47 44 42
39 43 42 37 40 42 43 43 44 50 53 50 44 42 42 42 42 44 52 56 58 56 55 54 54 55 54 55 56 57 56 55 51 46 45 47 49 49 52 52 52 52 52 52 33 40 46 47 48 48 49 49 48 46
39 45 38 39 38 38 45 49 44 52 54 52 50 45 41 42 49 56 55 55 54 53 54 54 52 52 50 50 50 50 54 55 54 51 48 45 46 50 50 50 50 51 51 51 51 52 39 47 46 51 47 47 45 43
46 42 38 40 39 45 49 50 51 50 50 50 52 46 41 41 45 50 52 53 54 54 52 51 52 52 51 50 49 48 46 49 48 47 48 51 51 49 48 49 50 51 50 50 49 49 47 47 46 44 43 41 38 37
41 38 38 35 38 47 49 45 42 41 40 40 39 43 42 40 35 41 46 49 50 50 43 49 51 50 53 54 54 51 42 49 48 46 45 46 46 46 48 49 50 49 48 48 48 47 45 43 41 41 39 36 33 33
39 41 40 39 38 38 42 41 38 34 35 34 34 35 36 35 30 34 39 39 41 48 49 51 52 52 50 49 48 46 43 42 35 30 30 29 29 33 43 44 45 46 46 45 45 44 42 39 37 36 35 34 32 30
MSLP
1018.49 1018.39 1018.39 1018.45 1018.56 1018.74 1018.98 1019.36 1019.74 1020.08 1020.36 1020.62 1020.71 1020.63 1020.46 1020.60 1020.90 1021.18 1020.43 1019.68 1019.43 1017.26 1015.24 1014.66 1013.96 1013.65 1012.77 1012.28 1011.69 1011.16 1011.29 1011.09 1010.51 1010.06 1009.40 1008.74 1007.89 1007.06 1006.51 1006.23 1006.14 1006.22 1006.91 1007.25 1006.70 1005.85 1004.61 1004.44 1004.40 1004.54 1004.11 1003.47 1003.08 1002.48
1017.73 1017.63 1017.62 1017.66 1017.75 1017.87 1018.12 1018.41 1018.78 1019.13 1019.54 1019.92 1020.17 1020.23 1020.11 1020.06 1020.48 1020.88 1020.52 1019.46 1019.57 1018.79 1016.08 1015.34 1014.53 1014.12 1013.65 1013.34 1013.30 1012.37 1011.84 1011.56 1011.26 1010.84 1010.69 1010.15 1009.39 1008.49 1007.64 1006.99 1006.50 1006.48 1007.20 1007.18 1006.72 1005.31 1004.58 1004.34 1004.56 1004.64 1004.29 1003.67 1003.01 1002.91
1017.01 1016.84 1016.85 1016.85 1016.91 1017.02 1017.20 1017.53 1017.89 1018.29 1018.74 1019.27 1019.58 1019.75 1019.64 1019.56 1019.87 1020.43 1020.32 1020.09 1019.47 1018.50 1015.96 1014.14 1012.34 1012.58 1013.29 1013.47 1013.70 1013.42 1012.18 1012.09 1012.38 1012.34 1011.71 1011.15 1010.30 1009.39 1008.68 1007.83 1007.34 1007.18 1007.10 1006.89 1006.74 1005.52 1005.62 1005.58 1005.21 1004.65 1004.31 1003.61 1003.16 1002.69
1016.16 1016.08 1016.00 1015.99 1016.01 1016.15 1016.34 1016.60 1017.03 1017.55 1018.06 1018.63 1019.00 1019.20 1019.28 1019.29 1019.26 1019.92 1020.24 1020.04 1019.61 1018.57 1016.68 1012.95 1012.31 1012.57 1012.68 1013.08 1013.48 1013.78 1013.66 1013.62 1013.62 1012.97 1012.28 1011.56 1010.90 1009.88 1009.30 1008.95 1008.63 1008.35 1008.19 1008.85 1007.62 1006.47 1006.74 1005.91 1006.14 1005.43 1004.57 1004.53 1003.77 1002.36
1015.39 1015.27 1015.24 1015.23 1015.25 1015.30 1015.44 1015.69 1016.14 1016.76 1017.43 1018.02 1018.41 1018.68 1018.91 1019.06 1019.04 1019.55 1019.82 1019.70 1019.30 1019.25 1017.04 1014.05 1012.34 1011.66 1011.93 1012.39 1012.88 1013.36 1013.74 1014.09 1014.23 1013.50 1012.60 1011.69 1010.77 1010.70 1009.70 1009.42 1009.03 1010.36 1010.60 1010.67 1009.72 1009.26 1008.76 1007.39 1006.42 1005.63 1005.14 1004.15 1003.00 1001.75
1014.54 1014.43 1014.45 1014.52 1014.53 1014.53 1014.59 1014.86 1015.36 1016.10 1016.84 1017.42 1017.74 1018.17 1018.49 1018.69 1019.04 1019.59 1019.51 1018.60 1018.72 1018.89 1018.20 1014.86 1011.80 1011.47 1011.64 1011.87 1012.32 1012.84 1013.41 1014.20 1014.93 1013.79 1012.76 1011.46 1010.96 1011.46 1010.94 1009.99 1010.74 1010.60 1010.56 1011.44 1010.99 1010.02 1008.93 1007.53 1006.21 1005.00 1003.90 1003.16 1002.60 1002.48
1013.66 1013.66 1013.60 1013.69 1013.75 1013.83 1013.89 1014.07 1014.70 1015.48 1016.27 1016.91 1017.32 1017.76 1018.04 1018.36 1018.82 1019.12 1019.17 1018.87 1018.37 1019.06 1018.15 1015.53 1011.33 1010.59 1010.91 1011.11 1011.63 1012.29 1013.66 1014.52 1014.90 1014.27 1012.69 1011.66 1011.54 1012.28 1012.11 1011.29 1010.95 1011.01 1011.74 1011.29 1010.36 1009.18 1007.97 1006.58 1005.11 1004.27 1003.96 1003.87 1003.54 1003.04
1012.81 1012.82 1012.86 1012.92 1012.99 1013.05 1013.19 1013.40 1014.12 1015.02 1015.88 1016.56 1017.17 1017.51 1017.79 1018.37 1018.89 1018.85 1018.51 1018.65 1018.57 1018.50 1017.66 1015.58 1012.15 1010.08 1010.30 1009.81 1010.67 1011.69 1012.81 1013.96 1014.25 1013.61 1012.76 1012.18 1012.36 1012.54 1012.12 1011.70 1011.79 1012.22 1011.89 1010.82 1009.92 1009.17 1007.72 1005.73 1004.70 1004.99 1004.40 1004.21 1003.34 1002.83
1011.98 1012.06 1012.05 1012.09 1012.20 1012.31 1012.49 1012.77 1013.68 1014.76 1015.64 1016.43 1017.01 1017.65 1018.22 1018.48 1018.31 1017.60 1017.52 1018.05 1018.24 1018.36 1016.90 1015.03 1012.33 1009.66 1009.67 1009.18 1009.33 1010.98 1011.74 1012.78 1013.48 1013.13 1011.82 1012.07 1011.99 1011.98 1012.27 1012.82 1012.80 1012.59 1012.20 1011.11 1009.58 1007.92 1006.30 1005.32 1005.04 1004.24 1004.61 1004.00 1003.37 1002.66
1011.16 1011.21 1011.25 1011.32 1011.47 1011.64 1011.81 1012.43 1013.55 1014.55 1015.66 1016.53 1017.09 1017.65 1017.57 1017.21 1017.17 1017.32 1017.99 1018.26 1018.32 1017.40 1016.54 1013.82 1011.35 1009.57 1008.93 1008.27 1008.43 1009.61 1010.24 1010.75 1011.65 1011.50 1011.68 1011.75 1011.71 1012.06 1012.89 1013.53 1013.24 1012.54 1011.68 1010.32 1008.74 1006.82 1005.64 1004.93 1004.43 1004.72 1004.67 1004.35 1003.74 1002.99
1010.37 1010.46 1010.55 1010.61 1010.77 1010.92 1011.37 1012.33 1013.40 1014.63 1015.79 1016.29 1016.65 1016.92 1017.08 1017.03 1016.84 1016.53 1016.29 1016.54 1016.10 1015.30 1014.17 1011.96 1010.52 1009.42 1009.31 1009.03 1008.68 1009.33 1009.89 1009.45 1009.33 1010.77 1010.95 1011.18 1011.53 1012.16 1013.05 1013.24 1012.94 1012.30 1011.36 1010.06 1008.49 1006.97 1005.47 1005.12 1004.73 1005.05 1004.36 1004.01 1003.51 1002.83
1009.66 1009.71 1009.80 1009.93 1010.12 1010.40 1011.20 1012.27 1013.35 1014.43 1015.25 1015.68 1016.38 1016.91 1017.06 1016.81 1016.39 1015.77 1014.67 1013.76 1013.41 1011.79 1011.10 1010.21 1009.45 1009.24 1009.14 1009.74 1010.03 1010.23 1010.13 1009.63 1009.36 1009.88 1010.50 1010.53 1011.64 1012.45 1012.95 1012.93 1012.61 1012.09 1011.15 1009.57 1007.92 1006.58 1005.52 1005.07 1004.66 1005.30 1004.81 1004.24 1003.68 1002.92
1008.96 1009.04 1009.15 1009.30 1009.55 1010.18 1011.14 1012.33 1013.38 1014.45 1015.16 1015.97 1016.14 1016.08 1015.85 1015.59 1014.85 1013.75 1012.01 1010.63 1009.92 1009.34 1009.33 1008.85 1008.98 1009.05 1009.71 1010.00 1010.02 1009.74 1009.13 1008.84 1008.67 1008.96 1009.74 1010.86 1011.80 1012.54 1012.91 1012.90 1012.54 1012.11 1011.07 1009.47 1007.76 1006.83 1006.01 1004.94 1004.43 1004.99 1004.85 1004.47 1003.78 1003.23
1008.25 1008.38 1008.53 1008.76 1009.29 1010.19 1011.29 1012.47 1013.49 1014.35 1014.94 1015.12 1015.04 1014.96 1014.30 1013.06 1011.95 1010.60 1009.45 1007.74 1007.44 1007.69 1007.93 1008.05 1008.63 1008.69 1009.16 1009.58 1009.64 1009.17 1008.74 1008.53 1008.85 1009.41 1010.49 1011.23 1012.32 1012.79 1012.97 1013.03 1012.72 1012.08 1011.22 1009.85 1008.30 1007.33 1006.33 1004.98 1004.61 1004.92 1004.94 1004.49 1003.77 1003.17
1007.65 1007.79 1007.96 1008.37 1009.24 1010.34 1011.58 1012.75 1013.49 1014.23 1014.30 1014.23 1013.97 1012.74 1011.90 1010.46 1009.51 1008.52 1007.62 1007.43 1007.30 1007.35 1007.60 1007.92 1008.10 1008.71 1009.52 1010.06 1009.80 1009.58 1009.31 1009.27 1009.69 1010.62 1011.48 1012.10 1012.53 1012.87 1013.07 1013.00 1012.70 1012.13 1011.27 1010.13 1008.90 1007.67 1006.95 1005.41 1004.84 1004.68 1004.54 1004.26 1004.10 1003.36
1007.19 1007.45 1007.81 1008.48 1009.55 1010.79 1012.10 1013.14 1014.15 1014.47 1014.20 1013.68 1012.86 1011.50 1010.35 1009.57 1008.61 1007.60 1006.98 1006.80 1007.31 1007.23 1007.55 1007.52 1008.00 1009.01 1009.73 1010.29 1010.49 1010.03 1009.92 1010.36 1011.11 1011.80 1012.18 1012.44 1012.64 1012.76 1012.87 1012.89 1012.62 1012.19 1011.53 1010.60 1009.45 1008.76 1007.52 1006.37 1005.04 1004.85 1004.59 1004.06 1003.80 1003.65
1006.83 1007.19 1007.75 1008.80 1010.16 1011.50 1012.64 1013.59 1014.19 1014.11 1013.50 1012.65 1011.23 1010.40 1009.47 1008.38 1007.49 1006.58 1006.26 1006.39 1007.03 1007.16 1006.84 1007.47 1008.20 1009.25 1010.32 1010.57 1010.69 1011.11 1011.07 1011.42 1011.74 1012.23 1012.65 1012.73 1012.71 1012.58 1012.51 1012.47 1012.21 1011.73 1011.37 1010.89 1010.17 1009.28 1008.17 1007.09 1005.70 1004.86 1004.45 1004.40 1003.73 1003.56
1006.51 1007.15 1008.09 1009.30 1010.69 1012.25 1013.12 1013.36 1013.30 1013.08 1012.29 1011.28 1010.11 1009.29 1008.76 1007.80 1006.65 1006.08 1006.24 1006.90 1007.13 1006.91 1007.14 1007.36 1008.07 1008.79 1009.75 1009.93 1010.38 1011.17 1011.41 1011.19 1011.46 1012.36 1012.68 1012.77 1012.73 1012.16 1012.11 1012.10 1011.84 1011.57 1011.28 1011.20 1010.68 1009.99 1008.91 1007.69 1006.55 1005.66 1004.86 1004.66 1004.18 1004.19
1006.33 1007.49 1008.70 1009.77 1010.74 1011.68 1012.53 1013.06 1012.87 1011.89 1010.80 1009.87 1009.44 1008.76 1008.28 1007.59 1006.71 1006.29 1006.69 1007.31 1007.47 1007.47 1007.66 1007.89 1008.03 1008.33 1008.97 1009.94 1010.60 1011.08 1010.73 1010.55 1011.22 1012.07 1012.04 1012.20 1012.32 1012.11 1011.86 1011.65 1011.41 1011.18 1010.88 1011.29 1011.23 1010.82 1010.04 1008.74 1007.80 1006.96 1006.08 1005.08 1004.44 1004.23
1007.30 1008.29 1009.31 1010.33 1010.73 1011.22 1011.69 1012.02 1011.88 1010.93 1009.85 1009.37 1008.94 1008.19 1007.71 1007.05 1006.63 1006.86 1007.30 1007.59 1007.72 1007.79 1007.83 1008.02 1008.13 1008.64 1009.23 1010.38 1010.57 1010.30 1010.54 1010.96 1011.23 1011.57 1011.28 1011.29 1011.41 1011.04 1010.93 1010.83 1010.76 1010.63 1010.75 1011.34 1011.53 1011.39 1010.59 1009.75 1008.85 1007.90 1006.76 1005.94 1004.90 1004.96
1008.75 1009.75 1010.35 1010.63 1011.05 1010.93 1010.71 1010.53 1010.39 1009.62 1008.72 1008.32 1007.82 1007.51 1007.19 1006.88 1006.65 1006.90 1007.17 1007.61 1007.76 1007.41 1007.86 1008.70 1009.11 1010.01 1010.21 1010.40 1010.73 1010.90 1011.12 1011.25 1012.03 1012.19 1011.96 1011.04 1010.88 1010.76 1010.68 1010.58 1010.51 1010.43 1011.05 1011.85 1012.11 1011.92 1011.49 1010.97 1010.26 1009.15 1007.86 1006.62 1005.65 1005.69
1009.63 1010.27 1010.78 1011.13 1010.91 1010.74 1010.28 1009.80 1009.36 1008.42 1008.17 1007.66 1007.37 1007.17 1006.73 1006.41 1006.25 1006.39 1006.99 1007.52 1007.44 1007.75 1008.45 1009.02 1009.48 1009.95 1010.32 1010.68 1011.18 1011.17 1011.69 1011.97 1012.61 1012.52 1012.22 1011.52 1011.04 1010.99 1010.85 1010.95 1010.97 1010.79 1011.10 1012.04 1012.52 1012.34 1012.00 1011.78 1011.08 1009.97 1008.87 1007.70 1006.17 1006.00
1009.72 1010.36 1010.70 1010.78 1010.59 1010.22 1009.70 1008.94 1008.69 1008.26 1007.77 1007.59 1007.14 1006.76 1006.16 1005.93 1006.06 1007.02 1007.10 1007.33 1007.69 1008.44 1008.77 1009.39 1009.90 1010.07 1010.25 1011.12 1011.51 1011.82 1011.89 1012.38 1012.06 1011.81 1011.69 1011.39 1011.36 1011.46 1011.28 1011.36 1011.55 1011.62 1011.54 1011.80 1011.99 1012.13 1011.96 1011.69 1011.24 1010.82 1010.10 1008.89 1007.45 1006.33
1009.86 1009.92 1009.97 1009.79 1009.63 1009.09 1008.79 1008.33 1008.02 1007.67 1007.21 1006.96 1006.55 1006.06 1005.82 1005.97 1006.92 1006.94 1006.26 1006.61 1007.55 1008.14 1008.50 1009.25 1009.79 1009.98 1010.59 1011.05 1010.94 1011.17 1011.61 1011.72 1011.69 1011.95 1012.09 1011.73 1011.58 1011.69 1011.66 1011.76 1012.15 1012.52 1012.43 1012.24 1012.08 1011.57 1011.36 1011.54 1011.28 1010.98 1010.76 1010.11 1009.29 1007.94
1009.68 1009.83 1009.69 1009.19 1008.60 1008.32 1007.95 1007.85 1007.62 1007.24 1006.60 1006.31 1006.11 1005.93 1006.22 1006.61 1006.81 1006.42 1005.96 1006.04 1007.29 1007.79 1008.26 1008.98 1008.99 1009.37 1009.75 1010.14 1010.57 1011.52 1012.17 1011.37 1011.51 1012.02 1012.58 1012.54 1012.33 1012.04 1012.03 1012.04 1012.54 1013.26 1013.05 1012.66 1012.51 1012.25 1011.76 1011.35 1011.41 1011.34 1011.33 1011.24 1010.77 1009.71
1008.81 1008.72 1008.57 1007.62 1007.63 1007.45 1007.43 1007.22 1007.07 1006.53 1006.08 1005.94 1005.61 1005.63 1006.08 1006.48 1006.40 1006.36 1005.89 1005.92 1006.84 1007.38 1007.94 1008.37 1008.62 1008.91 1009.25 1009.89 1010.59 1011.31 1012.03 1012.13 1012.22 1012.51 1013.13 1013.24 1013.36 1013.18 1012.99 1012.91 1013.09 1013.68 1013.87 1013.48 1013.10 1012.72 1012.51 1012.19 1011.63 1011.45 1011.36 1011.41 1011.60 1011.10
1008.28 1007.91 1007.55 1007.49 1007.38 1007.11 1007.10 1006.83 1006.45 1006.06 1005.48 1005.12 1005.38 1005.78 1006.25 1006.54 1006.57 1006.98 1006.95 1006.77 1006.90 1007.21 1007.96 1008.32 1008.59 1008.90 1009.52 1010.29 1011.18 1012.05 1012.43 1012.71 1012.69 1013.30 1013.78 1013.91 1014.22 1014.37 1014.22 1014.21 1014.47 1015.16 1014.56 1014.28 1013.85 1013.33 1013.06 1012.70 1012.34 1011.99 1011.69 1011.60 1011.80 1011.88
1007.68 1007.34 1007.30 1007.64 1007.50 1007.29 1006.70 1006.32 1005.79 1005.42 1005.07 1004.86 1005.44 1005.91 1006.16 1006.70 1007.48 1008.30 1007.73 1007.80 1007.55 1007.91 1008.30 1008.78 1009.22 1009.75 1010.53 1011.46 1012.03 1012.46 1012.84 1013.40 1014.05 1014.02 1014.05 1014.34 1014.69 1014.92 1014.98 1014.94 1015.25 1015.49 1015.15 1014.96 1014.77 1014.15 1013.89 1013.42 1013.06 1012.72 1012.26 1011.85 1012.02 1012.22
1007.48 1007.41 1007.33 1007.26 1007.01 1006.58 1006.07 1005.58 1005.24 1004.92 1004.84 1004.85 1005.57 1006.57 1007.28 1008.82 1009.44 1009.11 1008.37 1008.19 1008.48 1008.64 1009.04 1009.57 1010.38 1011.09 1011.79 1012.09 1012.34 1012.44 1012.87 1013.09 1013.21 1013.56 1013.71 1013.91 1014.25 1014.91 1015.29 1015.35 1015.31 1015.16 1015.06 1014.74 1015.20 1014.96 1014.68 1014.14 1013.90 1013.42 1013.00 1012.59 1012.56 1012.56
1007.18 1007.25 1007.27 1007.02 1006.76 1006.29 1005.92 1005.82 1006.16 1005.82 1005.70 1005.82 1006.72 1008.17 1009.29 1009.72 1009.65 1009.11 1008.89 1008.89 1009.03 1009.25 1009.74 1010.55 1011.35 1011.61 1011.89 1012.22 1012.69 1013.19 1013.46 1013.62 1013.82 1013.94 1014.04 1014.72 1015.22 1015.55 1015.75 1015.74 1015.67 1015.50 1015.46 1015.17 1014.82 1014.59 1014.65 1013.99 1013.76 1013.45 1013.58 1013.42 1013.48 1013.43
1007.27 1007.42 1007.38 1007.07 1006.75 1006.58 1006.30 1006.40 1006.57 1006.76 1006.83 1006.82 1006.88 1007.81 1009.38 1010.25 1010.64 1010.45 1010.12 1010.05 1010.00 1010.37 1010.81 1011.20 1011.44 1011.77 1012.11 1012.57 1013.07 1013.53 1014.30 1015.17 1015.81 1016.08 1015.98 1015.86 1016.06 1016.33 1016.47 1016.35 1016.19 1016.04 1015.84 1015.61 1015.39 1015.26 1015.30 1014.91 1014.85 1014.70 1014.57 1014.61 1014.75 1014.69
1007.46 1007.46 1007.32 1007.19 1007.12 1007.14 1006.93 1007.11 1007.45 1007.79 1008.41 1008.61 1009.00 1009.39 1010.04 1010.64 1011.54 1011.97 1012.32 1011.45 1010.90 1010.97 1011.51 1011.58 1011.64 1012.07 1012.52 1013.01 1013.46 1014.48 1015.13 1015.80 1016.39 1017.10 1017.38 1017.39 1017.48 1017.54 1017.14 1017.00 1016.80 1016.70 1016.34 1016.07 1015.91 1015.94 1016.11 1016.05 1016.03 1015.93 1015.82 1015.81 1015.87 1015.58
1007.65 1007.57 1007.63 1007.59 1007.51 1007.50 1007.52 1007.57 1008.03 1008.83 1009.36 1009.77 1010.24 1010.68 1011.05 1011.62 1012.81 1013.84 1014.14 1013.83 1013.13 1012.01 1012.08 1012.08 1012.43 1012.93 1013.68 1014.35 1015.16 1016.11 1016.80 1017.86 1018.67 1019.16 1019.57 1019.69 1019.67 1019.28 1018.56 1018.34 1017.95 1017.42 1017.02 1016.90 1016.86 1016.86 1017.01 1017.10 1017.24 1017.24 1017.15 1016.96 1016.71 1016.30
Wind_Speed
17 18 19 20 20 20 20 18 17 16 15 13 12 14 13 8 5 1 5 2 6 7 13 16 11 12 10 7 7 7 6 5 4 4 3 3 5 4 7 8 10 9 5 4 5 6 7 9 14 9 13 20 20 21
17 17 17 18 19 20 21 20 19 19 17 15 15 14 13 12 9 5 3 4 4 6 9 17 18 18 15 11 8 3 5 5 5 4 3 4 3 5 9 5 4 4 2 5 6 8 19 14 15 18 17 20 20 19
17 16 16 16 18 20 21 22 20 20 19 17 16 15 14 12 14 10 2 5 3 4 9 9 6 8 8 9 7 4 3 6 4 6 5 3 5 2 5 5 8 9 11 9 11 6 15 16 22 14 19 20 20 21
17 17 16 16 17 19 20 22 21 21 19 17 16 15 15 15 15 12 3 3 5 5 5 1 4 6 6 8 10 10 8 6 8 6 4 3 4 3 5 8 11 9 10 12 16 16 24 8 19 23 22 21 25 25
18 17 17 16 16 17 19 21 21 21 20 17 17 16 14 12 13 6 2 4 7 4 5 9 17 12 11 9 10 10 9 5 5 3 4 5 4 4 5 6 3 4 3 3 6 19 16 18 24 25 27 24 24 25
17 17 16 16 16 16 17 20 21 22 20 17 18 14 13 10 12 3 3 7 11 5 4 5 6 7 10 8 8 8 6 2 1 4 5 5 5 2 4 4 5 7 13 11 6 15 20 22 19 21 23 25 27 24
17 16 15 16 15 15 16 19 22 23 19 16 15 14 13 16 6 3 2 3 2 5 3 6 5 9 11 9 5 5 6 2 3 3 5 6 1 3 2 3 13 17 17 17 17 14 17 19 23 24 23 23 21 20
16 16 16 15 15 15 15 18 23 21 17 14 12 9 13 12 3 2 3 6 5 3 4 4 6 5 11 7 7 5 5 3 4 3 3 3 2 2 4 6 17 15 17 15 14 18 20 24 22 26 21 20 17 16
16 16 15 14 15 15 14 19 23 20 17 13 8 16 4 2 3 3 7 18 5 3 3 4 4 2 6 9 2 6 6 4 3 4 5 2 2 2 9 13 13 13 12 18 21 20 20 20 21 23 23 20 16 14
15 15 15 14 14 13 13 21 22 20 16 19 5 3 3 4 5 15 4 4 3 3 4 6 9 7 3 1 3 7 6 5 5 4 3 2 2 5 10 9 11 13 16 17 17 19 21 19 19 20 21 17 16 17
14 14 14 13 13 12 18 23 25 20 18 2 3 2 2 4 5 2 4 5 5 5 5 6 10 6 4 5 5 7 3 4 3 3 2 3 3 7 12 10 11 12 14 16 17 20 19 21 18 17 23 18 16 15
13 13 13 12 11 13 25 27 26 9 3 6 5 3 1 1 3 4 5 5 6 5 7 8 7 5 2 0 2 2 4 3 3 5 3 2 5 10 11 14 15 15 16 17 18 18 21 19 16 14 17 17 16 16
12 12 12 11 12 25 28 29 20 23 14 3 3 4 4 4 5 6 6 6 4 5 6 6 6 4 4 5 4 4 6 3 3 3 2 4 8 10 11 12 14 14 16 15 17 17 20 19 17 15 17 15 16 14
11 11 11 11 24 28 30 28 29 16 3 3 5 6 6 6 6 7 9 6 4 4 7 6 6 4 3 5 2 4 2 2 2 3 4 5 8 10 11 12 12 15 16 16 16 17 18 19 19 13 14 15 16 15
10 10 10 20 27 29 29 29 22 2 3 4 4 6 8 6 6 10 7 4 4 4 4 3 2 3 2 1 3 4 2 4 1 3 3 4 7 9 11 12 11 11 14 14 15 14 17 20 17 18 14 13 17 15
9 8 6 27 28 30 30 17 5 0 1 2 4 4 4 5 7 7 5 5 5 4 3 2 3 3 1 1 3 4 3 2 3 1 3 5 7 8 9 10 10 12 13 13 14 15 15 18 16 16 17 18 14 18
11 1 27 29 31 29 19 5 3 4 4 4 5 7 6 7 8 7 6 6 4 5 5 2 5 4 3 2 2 1 1 3 1 2 2 5 7 8 9 10 9 11 13 13 13 14 14 16 16 15 18 16 14 17
3 19 34 33 22 12 2 1 3 5 5 6 4 6 7 6 7 5 4 5 4 3 1 2 2 5 4 3 2 3 2 6 6 2 2 4 7 7 6 10 10 11 10 13 14 14 14 15 15 14 18 17 15 14
19 22 34 27 10 5 4 4 3 4 6 5 5 4 7 6 5 4 5 4 2 3 1 3 2 2 3 2 4 5 5 2 3 3 3 4 4 6 7 8 8 10 9 10 12 10 11 15 12 11 12 13 11 13
34 32 26 17 4 3 4 3 4 4 4 3 6 7 7 8 6 5 4 4 4 3 4 3 1 3 2 4 5 3 4 2 2 2 4 3 2 4 6 7 6 7 9 11 10 11 11 11 11 12 13 12 11 12
20 13 10 3 2 1 2 4 4 4 4 5 7 7 5 4 6 5 5 4 5 3 3 2 3 4 5 5 4 1 5 4 4 1 2 5 5 6 6 7 8 7 7 8 9 10 11 10 11 12 12 12 11 11
5 8 3 2 1 2 3 3 3 3 3 1 6 6 6 9 8 6 5 5 2 3 1 3 5 6 6 6 5 2 6 6 5 0 8 5 4 6 6 7 8 8 8 8 8 9 9 9 10 11 12 13 12 10
11 3 3 3 2 3 2 5 4 5 5 5 7 5 5 6 4 6 4 4 2 3 5 6 7 6 7 7 6 6 4 6 4 0 3 4 5 5 6 7 8 9 8 8 6 7 8 6 8 10 10 12 13 10
5 4 5 5 5 3 5 5 4 4 3 5 6 4 7 4 5 5 5 7 5 6 8 10 8 7 6 7 6 6 5 4 3 5 4 4 4 5 5 6 7 8 8 8 8 9 9 10 10 9 10 11 13 13
4 4 4 4 5 5 5 6 5 4 5 6 7 4 5 5 5 5 6 5 8 8 8 9 8 7 7 6 6 6 3 2 3 6 4 5 5 4 5 5 7 9 9 9 9 10 11 11 10 11 10 11 15 16
3 5 5 6 4 5 5 5 8 8 6 7 6 4 4 4 6 5 5 7 7 8 9 9 8 7 7 7 6 6 5 2 3 5 5 5 5 6 6 7 7 8 9 9 10 11 12 12 12 14 13 12 11 13
3 4 3 1 1 1 2 2 3 4 6 6 5 7 5 5 6 4 2 4 5 7 8 7 7 7 7 7 7 5 5 3 5 7 4 5 6 6 6 7 8 8 7 10 11 12 13 12 12 12 12 10 10 10
2 2 5 5 3 4 4 5 6 7 4 2 5 7 4 3 4 3 0 3 5 8 8 7 6 6 7 7 6 6 6 7 6 5 5 6 5 5 6 5 6 4 6 6 9 10 12 11 11 12 13 11 11 9
3 3 3 6 5 5 4 4 3 2 2 3 5 2 4 4 2 2 5 7 7 8 8 9 8 8 7 5 5 5 6 5 5 5 4 4 4 6 5 5 5 6 6 7 4 5 10 9 9 10 13 9 9 8
4 4 3 5 4 5 2 2 2 3 4 4 5 7 7 4 2 3 6 7 7 8 8 9 8 8 8 7 7 6 5 5 5 2 4 5 4 5 5 5 6 6 6 7 8 9 6 8 8 10 11 10 10 10
2 4 3 4 2 1 1 5 4 4 5 4 4 9 7 4 5 6 3 5 6 7 8 8 8 7 7 7 7 7 8 7 8 8 6 4 5 6 6 5 5 6 6 7 7 9 11 10 10 12 13 14 15 12
4 4 2 4 3 2 2 3 2 3 2 2 2 6 8 5 4 3 6 5 5 7 6 6 7 7 7 6 8 10 10 7 7 8 9 7 7 7 6 6 6 6 7 7 8 9 11 12 10 12 12 14 14 15
2 2 3 2 3 5 5 4 3 4 3 2 4 3 4 4 5 3 4 7 7 3 6 6 7 8 11 11 11 10 11 10 11 10 10 10 10 10 7 7 7 7 8 8 9 10 11 13 12 14 13 14 14 14
Wind_Direction
256 252 250 247 239 228 217 217 226 224 224 228 246 270 268 224 211 204 292 215 269 278 288 282 281 287 283 244 280 27 258 200 254 264 291 310 294 322 283 323 297 289 267 226 249 242 266 19 338 329 322 308 312 307
259 254 252 250 244 232 221 216 220 214 216 221 234 252 273 224 190 182 262 208 250 258 290 317 281 271 267 277 304 276 332 285 332 330 343 329 313 294 321 293 287 295 332 294 289 295 308 341 323 319 305 297 301 301
262 256 253 249 245 237 225 219 217 212 210 217 231 242 259 265 182 193 260 299 269 270 274 238 236 187 211 224 233 275 323 6 27 321 336 295 273 257 290 293 315 325 318 287 311 302 325 319 311 320 314 304 299 295
261 258 254 251 245 239 233 220 216 208 205 215 230 236 260 294 181 190 203 241 256 296 282 296 144 214 200 195 204 223 276 322 322 319 275 263 269 293 288 308 306 306 317 347 296 296 339 309 317 305 312 313 294 296
259 256 255 252 249 246 236 223 209 200 202 214 229 232 254 287 174 187 229 253 249 259 308 308 303 242 232 199 211 219 235 256 291 261 262 253 281 297 272 278 276 21 351 311 281 306 297 290 300 309 301 300 293 306
258 253 253 254 252 248 240 219 202 195 200 213 229 229 247 246 145 130 265 198 220 199 274 284 7 198 188 194 214 221 220 215 216 274 252 264 273 295 297 275 105 299 342 337 285 287 283 281 287 301 314 320 326 324
254 252 252 254 254 251 244 217 196 193 196 215 214 231 257 167 164 163 282 354 132 165 251 271 243 176 193 209 169 183 132 150 214 252 250 267 280 180 258 272 340 344 331 313 301 312 310 305 310 322 329 332 322 310
253 253 252 251 251 250 243 213 192 189 190 194 211 248 142 154 77 271 216 239 219 219 251 268 277 218 180 220 174 162 155 183 209 258 264 263 136 210 245 302 340 335 322 306 318 303 290 296 343 333 331 324 315 315
251 251 252 252 250 244 237 197 182 176 173 186 185 126 125 194 207 235 204 191 213 282 255 243 256 192 194 237 175 174 176 194 182 225 219 139 163 233 357 342 325 324 308 294 294 300 309 348 327 330 340 330 322 320
253 255 252 249 246 238 221 176 165 160 161 138 129 164 203 201 185 120 117 147 206 218 231 250 254 269 235 240 251 180 188 195 202 189 112 209 162 110 24 346 318 307 307 310 315 324 327 345 346 347 335 327 323 320
253 252 248 245 243 233 179 158 150 145 138 157 163 193 47 346 194 233 180 200 182 216 218 237 241 255 183 268 286 17 345 279 251 132 231 184 163 21 3 333 321 324 322 319 312 313 341 354 349 352 335 336 325 329
252 251 248 242 231 196 157 149 144 129 135 126 112 92 145 190 189 213 211 199 202 239 171 217 196 217 74 2 256 178 248 239 272 146 197 189 55 12 350 337 339 340 333 323 322 336 344 354 2 360 340 340 339 333
251 249 242 223 196 157 150 148 132 121 112 120 167 164 197 158 197 215 204 208 194 198 177 197 171 203 148 208 219 219 231 229 228 194 88 55 37 3 351 343 339 335 331 330 335 344 339 349 12 10 348 347 342 345
248 245 233 201 159 152 148 140 136 129 121 169 166 174 222 179 225 201 244 258 129 174 166 184 159 206 138 206 257 255 259 314 282 192 93 32 14 356 348 347 340 336 332 332 334 338 341 345 359 15 360 350 347 350
240 232 207 163 152 148 143 143 140 123 171 175 198 209 210 235 238 230 219 117 138 145 150 160 161 153 130 262 294 301 244 221 264 52 45 9 358 359 351 347 341 333 333 329 331 343 334 337 6 0 357 356 356 352
220 184 156 148 144 138 139 122 82 35 204 235 229 233 235 218 236 235 192 145 167 171 165 243 133 121 167 275 244 228 245 228 77 32 341 351 348 351 354 345 335 330 336 329 335 344 339 333 359 7 359 356 11 358
164 207 146 138 134 134 111 92 144 194 218 218 221 227 259 228 218 198 202 147 160 194 212 148 179 168 126 213 249 236 296 79 163 55 10 344 338 345 345 345 341 343 349 346 338 343 339 341 347 2 6 357 359 4
117 138 133 128 118 108 69 123 175 188 212 226 226 203 219 256 246 164 119 120 205 216 166 226 91 185 184 234 193 167 152 212 101 44 12 321 327 334 351 343 343 342 358 355 349 346 339 345 357 354 352 6 355 5
139 134 129 127 124 117 138 165 226 218 222 191 208 221 206 226 267 167 135 119 316 358 90 209 241 262 166 103 109 161 200 40 87 77 248 134 332 338 338 332 337 334 357 15 356 351 340 340 355 349 345 343 358 7
132 129 124 127 124 118 138 143 208 246 203 195 212 197 204 208 179 156 159 179 191 201 192 212 317 45 81 135 177 81 81 116 73 51 24 25 2 317 14 354 351 341 11 3 5 356 353 354 351 349 344 346 358 7
101 106 91 86 117 279 178 165 197 217 192 187 203 186 194 174 177 179 171 176 210 235 134 173 122 102 135 147 120 153 95 34 70 81 334 9 358 23 13 15 2 22 32 9 359 354 360 354 342 339 338 348 352 22
95 102 91 27 115 208 217 209 234 175 183 205 171 192 194 193 189 187 121 208 229 109 120 148 150 152 148 139 129 41 86 93 66 263 229 241 19 27 26 25 13 14 26 26 358 351 351 351 346 345 348 339 343 32
100 89 108 158 169 203 231 175 196 183 174 184 186 202 196 182 155 119 205 186 142 157 153 150 151 181 122 131 131 134 119 133 142 248 52 28 57 37 34 38 29 14 12 22 13 0 355 347 352 356 350 349 345 27
167 137 173 177 205 180 173 191 197 195 196 182 187 197 178 151 135 223 226 167 144 163 161 141 170 144 157 162 176 147 140 126 159 90 32 14 38 51 40 49 43 26 5 10 5 359 11 10 360 12 1 359 355 350
159 156 185 188 213 167 179 165 187 199 190 187 190 168 148 155 190 218 226 149 153 179 156 176 177 171 164 169 130 117 203 204 105 94 54 36 8 35 39 47 70 38 2 4 8 5 4 4 12 11 20 11 3 348
171 167 205 197 165 179 177 174 190 194 176 186 202 149 141 190 207 215 213 162 163 180 169 178 178 176 160 142 140 140 136 115 120 100 69 47 36 20 23 27 22 38 2 5 357 358 6 3 6 10 9 21 12 2
169 193 185 190 152 168 168 214 178 191 192 193 158 169 187 186 216 97 153 128 175 159 164 175 173 163 143 127 93 109 117 96 44 71 78 67 62 38 27 26 31 12 342 11 357 360 359 359 4 4 7 11 27 8
268 202 182 165 180 212 207 193 196 192 205 195 160 196 209 200 81 66 340 154 157 144 152 139 135 121 119 131 134 138 127 110 126 143 139 118 90 61 37 36 47 244 326 28 2 6 359 355 2 2 2 8 8 17
203 182 177 184 203 209 231 215 213 186 351 198 186 157 100 65 26 172 176 145 147 140 145 138 124 117 121 130 126 135 146 166 153 128 113 76 62 60 36 28 17 18 8 3 122 17 358 338 348 358 358 8 12 8
155 179 210 203 207 213 200 41 71 65 51 66 104 105 85 93 136 205 141 148 151 149 134 130 142 158 150 144 125 107 75 56 39 42 102 90 74 49 35 26 18 13 10 4 2 13 357 347 13 11 13 9 12 360
137 189 237 226 240 100 146 119 123 74 36 47 46 109 120 107 48 16 101 144 147 140 147 156 160 153 152 142 142 142 115 89 79 60 28 64 54 47 29 16 16 9 3 7 11 18 9 8 12 4 6 6 4 358
200 210 231 227 169 216 200 153 120 80 99 120 101 131 139 128 104 74 3 322 158 154 146 165 151 148 138 133 86 72 80 102 82 55 37 33 36 17 17 13 13 6 2 9 16 21 16 16 12 8 4 4 355 350
155 176 209 201 179 188 199 180 138 113 108 80 51 52 55 62 77 51 1 358 332 152 164 137 123 108 93 93 95 84 72 81 83 79 73 56 37 8 5 15 356 3 7 21 18 17 21 18 19 10 7 3 356 351